Theta_e
325 326 326 327 327 328 328 327 326 324 325 325 325 324 324 324 324 326 328 330 331 332 331 330 330 329 329 330 331 331 331 332 331 332 333 331 330 332 333 332 330 332 333 333 336 337 335 334 334 335 336 333 333 335 335 334 336 336 334 334 336 337 335
324 323 324 327 328 328 328 327 327 326 325 325 325 325 324 324 325 325 326 328 328 331 331 331 331 331 330 331 331 330 330 330 330 330 332 331 331 334 335 333 331 332 333 332 334 335 335 335 334 336 336 335 335 335 333 332 334 335 335 335 335 336 336
323 323 323 326 326 324 325 326 325 326 327 326 325 325 324 326 329 328 326 326 327 328 330 331 332 332 332 331 330 330 329 329 329 329 330 330 331 333 333 332 332 332 332 333 333 335 335 335 334 335 335 335 335 335 333 331 333 336 336 335 335 336 337
324 325 325 326 326 325 326 326 324 326 328 328 327 327 325 327 330 331 329 329 328 327 328 330 330 330 331 331 330 329 329 329 330 329 329 329 329 330 330 331 331 331 331 333 335 335 335 336 335 334 335 335 334 335 334 332 333 335 335 335 336 336 336
325 326 326 325 326 327 328 328 329 329 330 331 330 328 327 325 327 328 328 329 329 328 329 330 329 330 331 331 330 330 329 329 329 329 329 329 329 329 329 329 329 329 331 334 336 335 334 335 335 335 335 334 334 335 335 332 332 334 335 335 335 335 336
326 325 323 322 324 325 327 329 332 333 332 331 331 328 327 325 325 327 327 328 329 329 330 330 330 330 331 331 331 330 330 329 329 330 329 329 329 329 328 328 329 330 332 335 337 336 334 333 333 335 334 334 334 333 333 333 333 333 334 335 335 335 335
325 325 322 322 323 324 326 328 331 333 332 331 331 328 326 326 327 328 329 330 331 331 331 330 331 331 331 331 331 331 331 331 330 329 329 328 329 328 328 329 330 332 335 336 335 336 336 335 335 336 335 334 333 331 331 332 332 332 333 334 334 334 334
326 327 324 322 322 323 326 328 331 332 332 333 333 330 327 327 327 328 329 331 331 331 330 330 330 331 331 331 331 331 331 330 330 330 329 329 329 327 328 329 331 333 335 335 333 332 333 333 334 334 333 333 332 331 330 330 330 331 331 333 333 331 331
325 325 323 321 322 325 327 329 331 332 332 333 334 333 332 330 330 330 330 330 331 330 329 329 330 331 331 331 330 330 329 329 330 330 330 329 329 328 329 329 331 332 332 331 329 328 328 327 328 329 330 333 333 330 330 329 331 332 330 332 332 330 330
323 322 321 321 322 325 327 329 331 331 330 331 332 334 334 332 331 331 331 331 331 330 329 330 330 331 331 332 331 330 330 329 329 330 330 329 328 329 330 330 330 330 328 327 327 327 327 327 327 327 329 333 333 331 330 329 330 332 331 331 332 332 331
322 322 321 321 323 326 328 329 330 330 329 330 332 334 335 333 332 332 331 332 331 331 330 330 330 330 331 332 332 331 331 329 329 329 329 329 329 331 331 330 329 329 328 328 329 328 328 328 328 327 328 331 331 331 332 331 329 330 331 331 332 332 330
322 322 321 322 325 328 329 329 329 329 329 330 332 333 333 333 334 333 333 332 332 332 332 330 330 330 331 332 332 332 331 330 329 329 329 330 331 331 330 329 330 330 329 330 330 329 329 328 327 326 326 327 328 329 330 332 331 330 331 332 331 330 327
321 322 322 323 326 328 329 329 329 329 329 329 331 331 330 331 332 332 333 333 332 332 332 331 330 331 331 331 332 331 331 330 329 329 329 330 330 329 329 330 330 330 330 330 330 329 329 328 326 326 326 326 327 327 328 330 332 331 331 330 329 329 327
322 323 323 323 326 328 329 329 329 330 330 330 330 330 328 329 331 332 332 333 332 332 332 332 331 332 332 332 331 331 331 330 329 330 330 330 329 328 329 330 329 328 329 329 330 330 329 328 327 326 326 327 329 328 328 329 330 331 330 329 329 329 327
324 324 324 325 327 328 329 329 330 331 330 330 330 329 328 328 330 332 332 332 332 333 333 334 334 333 332 331 331 332 332 332 331 331 331 331 330 329 330 330 329 328 328 329 329 331 332 330 327 326 326 326 330 330 327 327 329 330 330 331 330 329 328
327 326 327 328 329 329 330 331 330 330 330 329 329 329 329 328 329 332 334 333 333 332 334 335 335 334 333 333 332 331 332 332 332 332 331 331 330 330 329 329 328 328 328 326 326 329 332 330 327 328 328 327 328 329 327 326 328 330 331 331 330 329 328
329 329 330 330 330 330 331 332 331 330 330 329 329 329 329 329 328 332 335 336 336 334 333 332 332 332 332 334 334 334 333 332 333 334 332 330 331 331 329 327 326 326 326 324 324 326 328 327 327 329 330 328 326 326 327 327 327 328 330 330 329 328 325
329 329 330 329 330 332 333 332 331 331 330 331 331 330 329 328 328 331 334 336 338 338 335 333 331 330 331 332 333 334 335 335 334 334 331 330 330 331 330 328 325 325 325 323 324 325 325 325 326 328 329 329 327 326 327 327 328 328 329 329 328 325 321
330 330 330 331 333 334 333 332 332 331 332 332 332 331 330 329 328 329 331 333 336 337 337 336 334 332 331 332 331 332 335 335 334 332 330 329 329 330 331 329 326 325 325 324 324 324 324 324 325 328 328 328 329 329 327 327 328 328 328 327 324 322 320
332 332 333 335 336 336 334 333 332 332 332 333 332 331 330 329 329 329 330 331 333 334 335 335 335 333 332 332 330 330 331 331 330 330 330 330 331 331 330 328 325 324 324 324 324 323 324 325 326 327 327 328 331 330 327 328 329 328 326 323 321 321 321
333 334 335 337 337 335 333 333 334 333 332 332 332 331 330 330 330 330 331 332 332 332 331 332 332 331 332 332 330 329 330 330 330 330 330 331 331 331 330 328 325 324 323 323 324 324 325 327 327 327 329 330 330 329 328 329 328 326 323 321 320 321 320
334 334 336 336 336 334 331 331 333 334 334 334 333 333 333 332 331 330 330 332 332 331 329 330 330 329 330 330 329 329 330 331 331 331 330 328 329 330 330 329 327 326 325 324 324 325 325 326 326 329 332 331 328 327 328 329 327 324 322 321 321 321 320
333 335 336 336 335 333 330 330 332 334 336 336 334 335 335 335 333 332 331 332 332 330 328 328 328 326 325 326 327 328 330 330 330 331 328 325 328 330 328 327 327 327 327 326 325 323 322 322 322 327 330 330 327 327 328 327 325 323 321 320 320 320 319
333 336 337 337 335 332 330 330 332 334 336 336 335 334 335 335 333 333 333 332 331 330 329 327 324 322 321 322 324 327 330 331 331 330 328 326 328 328 326 325 325 326 326 326 324 322 322 322 321 322 326 327 326 326 326 326 324 321 320 320 320 320 319
335 337 337 337 335 333 331 331 331 333 335 334 334 335 335 334 333 333 334 333 331 331 330 328 324 321 320 320 321 325 330 331 331 330 331 330 328 326 327 327 325 325 325 325 324 324 325 325 323 323 325 326 325 324 325 324 322 320 320 320 320 320 319
336 337 337 337 336 334 333 330 329 331 333 333 333 334 334 333 333 333 333 333 332 332 331 330 326 322 320 321 320 322 327 329 329 329 330 330 327 327 330 331 327 325 325 325 325 327 327 327 325 324 325 325 325 324 324 323 320 318 318 319 320 320 320
332 333 333 334 335 334 334 332 331 333 334 332 332 332 331 331 332 333 334 333 333 332 332 330 327 323 321 321 320 321 324 328 330 330 330 329 329 328 330 331 329 327 327 327 328 328 328 327 326 325 325 325 325 324 324 323 318 314 314 316 319 320 320
328 328 328 328 329 330 331 330 330 331 332 330 332 333 331 329 330 331 332 332 333 333 332 330 327 324 321 321 320 320 323 327 330 331 331 330 329 328 327 328 329 330 329 328 328 328 328 327 327 326 326 325 325 324 324 322 319 315 313 313 315 317 318
327 327 326 326 326 325 326 326 326 327 327 328 331 332 332 331 331 331 331 331 330 331 332 329 326 323 321 321 321 320 322 327 331 333 332 330 329 328 327 326 328 329 328 327 327 328 327 327 327 327 326 325 324 324 323 322 319 316 314 312 313 314 315
326 325 325 325 326 325 325 326 325 326 326 326 327 328 330 333 333 333 332 331 329 330 331 328 324 324 322 321 321 321 322 326 330 333 333 331 329 328 328 327 327 328 328 327 326 326 326 326 327 328 327 325 324 324 323 322 320 317 314 313 312 313 313
324 324 324 325 325 325 325 326 326 326 327 327 327 327 328 331 333 332 332 332 330 330 331 329 326 325 324 322 322 321 323 326 329 332 333 332 331 330 329 328 327 328 329 329 326 324 324 325 327 327 327 325 324 324 323 322 321 318 315 313 313 312 312
324 324 324 325 325 325 325 325 325 326 326 326 327 328 327 329 332 333 332 330 329 329 331 331 329 328 326 324 323 322 323 326 329 331 333 333 331 331 330 329 328 328 329 329 326 323 324 325 326 326 326 325 324 324 324 323 322 320 317 313 312 312 312
325 324 325 325 325 325 324 324 324 324 325 324 325 327 328 328 331 333 332 330 328 326 329 330 330 330 329 327 325 323 323 325 327 330 332 332 332 331 330 329 328 327 327 327 325 324 324 324 325 326 326 325 325 325 324 323 321 321 319 316 315 314 313
324 324 325 325 325 324 323 323 322 321 321 321 322 325 328 327 329 332 332 331 329 326 326 328 328 329 329 327 326 324 323 324 325 328 332 332 332 332 332 331 330 328 328 328 326 324 324 324 325 325 326 326 325 325 324 323 321 320 319 318 318 317 316
324 325 326 324 324 324 322 321 321 320 319 319 320 324 328 328 328 331 333 332 330 326 324 324 324 325 326 325 324 324 325 325 325 327 330 332 331 331 331 332 331 329 328 328 327 326 325 324 324 325 325 326 325 325 324 323 321 321 320 318 318 318 318
325 325 325 324 324 323 321 319 319 319 320 321 320 323 328 329 328 331 333 331 328 325 323 322 322 323 324 324 324 325 326 325 323 324 326 328 329 330 330 331 330 327 325 327 328 327 326 326 325 325 325 325 325 324 324 323 321 321 320 319 318 318 318
324 324 323 323 321 320 319 319 319 322 326 327 324 325 329 330 329 330 330 328 325 323 323 322 322 323 325 325 325 325 324 322 321 321 322 322 323 326 327 328 326 322 321 324 327 328 327 326 326 325 325 325 325 324 323 323 321 320 320 319 319 318 317
Wind_Speed
17 14 13 12 11 11 11 11 11 12 12 12 13 13 12 13 14 14 14 14 14 13 14 15 14 14 14 13 13 13 12 12 12 11 10 10 9 9 8 7 6 5 5 4 3 4 2 3 4 4 3 2 1 3 3 2 2 3 3 1 2 3 4
18 16 15 14 12 12 11 11 11 13 13 14 14 14 13 13 13 14 15 15 16 15 14 14 14 14 14 13 13 14 13 13 12 12 11 11 10 8 7 6 6 5 4 4 4 4 3 3 1 3 2 2 1 3 4 3 2 2 2 2 2 2 4
21 20 17 15 13 12 11 11 12 13 14 15 15 15 14 13 12 13 15 15 16 16 15 14 14 14 14 14 13 14 14 14 13 12 11 10 9 9 7 6 5 4 4 4 4 4 3 3 3 1 2 2 2 3 4 3 1 1 2 2 1 1 2
23 20 18 17 15 14 14 14 14 15 15 16 16 16 15 13 12 12 13 14 15 16 16 15 15 15 14 14 14 14 15 15 14 13 11 10 9 9 9 7 6 5 5 4 4 4 3 2 3 2 2 1 2 2 3 3 1 1 1 0 0 0 0
24 21 19 17 16 16 15 14 14 15 15 15 15 16 16 15 14 13 13 13 13 14 14 14 14 14 14 14 15 15 15 15 15 13 11 11 11 10 9 8 8 8 6 5 4 4 4 3 3 2 2 2 1 2 2 1 1 2 2 1 1 1 0
25 22 20 18 17 17 15 13 12 13 14 15 15 15 16 15 15 14 13 11 11 11 12 12 13 13 14 14 14 15 15 14 14 13 12 11 11 11 10 10 9 8 6 5 5 5 4 4 3 3 3 2 1 1 2 1 2 2 3 2 2 1 0
24 23 21 20 18 17 15 14 13 14 14 14 14 15 15 15 15 14 13 12 12 12 12 12 13 13 14 14 15 15 14 14 13 13 12 12 12 12 12 11 9 8 7 7 7 5 5 4 3 3 3 3 2 2 2 2 2 3 3 2 2 1 0
24 22 21 20 19 17 16 15 15 16 15 13 14 15 15 15 15 14 13 13 14 14 14 14 13 13 14 14 15 15 14 14 13 13 13 13 13 12 12 11 10 9 9 8 8 6 6 5 4 4 4 2 2 1 1 2 2 2 3 2 1 1 1
25 24 22 21 19 18 17 16 16 17 16 16 15 13 13 15 15 14 14 14 14 14 14 14 14 14 13 14 14 15 14 14 13 13 13 13 13 12 12 11 10 10 10 9 8 7 6 6 5 5 4 2 2 1 1 1 2 2 2 1 2 2 3
27 25 23 22 21 19 18 17 17 18 17 17 15 13 12 14 14 14 14 13 13 13 13 14 15 14 14 14 14 13 14 14 14 14 14 14 13 12 12 11 11 11 10 9 8 7 7 6 6 5 4 3 3 2 2 2 1 2 1 1 1 2 5
28 26 24 23 22 21 19 18 19 20 19 17 15 14 13 13 13 13 13 13 13 13 14 15 15 15 15 14 13 13 14 14 14 14 14 14 14 13 13 12 11 10 9 8 8 8 7 8 7 6 5 4 4 3 3 2 2 2 2 1 1 2 6
28 27 26 25 23 21 20 19 20 21 20 18 18 17 15 13 13 14 13 13 13 14 14 15 15 16 16 15 15 14 14 14 15 15 15 15 15 14 14 13 12 10 9 9 9 8 8 8 7 6 5 5 5 5 4 3 3 4 3 3 3 5 8
29 28 27 26 24 22 21 21 22 22 21 20 20 19 17 15 15 15 14 14 14 14 14 15 16 16 16 17 17 16 16 15 16 16 15 15 16 15 14 14 13 12 11 10 10 10 9 9 7 6 6 6 6 6 5 4 4 5 6 7 6 5 8
28 28 27 26 25 23 23 24 24 22 20 21 21 20 18 18 17 16 15 15 15 15 15 15 16 16 16 17 18 18 17 17 17 16 16 17 16 15 15 14 14 14 13 12 12 11 10 10 8 7 7 7 7 7 7 6 6 6 8 9 7 7 8
28 28 28 27 26 26 25 26 26 23 20 21 22 20 19 19 18 17 16 16 16 16 15 15 16 17 17 17 18 19 19 18 17 17 17 17 17 16 16 15 15 15 14 14 13 11 10 11 10 9 9 9 9 9 8 8 7 7 7 7 7 6 6
29 29 29 28 28 27 27 27 26 23 22 22 23 22 21 20 19 18 17 17 17 17 17 17 17 17 17 17 17 18 19 19 18 19 19 18 16 17 17 16 16 16 16 16 15 13 12 12 11 10 10 10 10 10 9 9 9 8 7 7 6 5 6
29 29 29 29 29 28 27 26 25 23 22 22 23 23 23 21 20 19 19 18 18 18 18 18 18 18 17 17 17 17 18 19 19 20 20 19 17 17 18 18 16 16 17 17 16 15 15 14 12 12 12 12 11 10 10 10 10 9 8 7 6 6 7
28 28 29 29 29 26 25 24 24 23 22 22 22 22 22 22 21 21 21 20 19 18 19 19 19 18 18 17 18 18 18 19 20 21 21 19 18 18 18 17 16 16 17 17 16 16 15 14 14 13 13 12 12 12 12 11 10 9 9 8 7 7 9
27 27 28 27 25 23 23 24 23 23 22 22 21 21 22 22 22 22 22 21 20 19 19 19 19 19 18 17 17 18 19 19 21 22 22 20 19 19 19 18 17 17 17 16 17 17 15 14 15 15 14 14 13 13 13 12 10 10 9 8 7 7 8
27 27 26 23 21 21 21 22 23 24 23 22 22 22 22 22 22 22 22 21 20 20 20 19 19 19 19 18 18 18 20 21 21 21 21 20 20 21 20 19 19 19 18 16 16 16 15 15 15 15 16 15 14 14 13 11 11 11 9 8 7 6 6
28 27 24 21 20 21 20 20 22 23 23 22 22 22 22 23 22 22 21 20 20 20 20 20 20 20 19 19 19 19 20 20 20 20 20 20 21 21 21 20 20 20 19 17 17 17 16 15 15 15 16 16 15 14 13 11 11 10 8 7 7 6 5
29 27 24 22 21 21 20 20 21 21 21 21 22 21 20 21 21 22 22 21 20 21 21 20 20 20 20 19 19 20 20 20 21 20 19 20 21 22 21 21 21 21 20 20 19 18 17 16 15 14 14 16 16 15 13 12 10 9 8 8 7 6 5
29 26 24 24 23 21 20 20 20 20 20 20 21 20 19 18 19 20 21 21 21 21 21 21 21 20 19 18 18 19 20 21 21 20 18 19 21 22 21 21 20 20 20 20 19 19 18 17 16 15 15 15 17 16 14 12 11 9 9 8 7 6 5
28 25 23 23 23 22 21 21 21 20 20 20 20 20 19 19 19 19 20 21 20 20 21 21 20 18 17 17 17 18 19 21 21 20 19 20 21 21 20 19 18 18 19 19 19 18 18 16 15 16 17 17 17 17 14 12 11 10 10 9 7 7 6
23 20 21 21 21 22 22 22 22 21 21 21 20 19 19 20 20 20 20 20 20 20 20 20 18 17 18 18 18 18 18 20 21 22 22 21 20 19 17 17 18 18 19 19 19 18 17 16 15 16 17 18 18 16 14 13 12 11 10 9 8 7 6
21 19 20 20 20 20 21 21 20 20 20 21 21 21 20 20 20 21 21 21 21 21 20 19 19 19 19 18 18 19 19 19 20 22 22 21 20 18 16 17 18 19 19 18 18 18 17 16 16 17 18 18 18 17 16 15 14 13 12 10 8 7 6
22 21 20 20 20 19 19 19 20 19 19 20 21 22 21 21 20 21 23 23 22 22 21 20 20 20 20 18 18 19 20 19 18 20 21 20 20 18 17 17 18 19 19 19 18 18 17 17 17 18 19 19 19 18 16 15 15 15 14 11 9 8 7
23 22 21 20 20 19 18 19 19 19 19 20 19 19 19 20 20 20 21 23 23 23 22 22 21 21 20 18 18 19 20 20 20 20 20 21 20 19 19 20 19 18 19 19 19 18 18 17 17 18 19 19 18 17 16 16 15 15 14 13 12 10 8
24 23 22 21 20 20 19 18 18 19 20 20 19 19 18 18 18 17 18 21 23 23 23 22 22 21 20 18 18 19 21 22 21 20 20 22 21 20 21 21 20 19 18 19 20 19 18 16 16 17 19 19 18 17 17 17 16 15 14 14 14 12 10
25 24 23 22 21 20 19 19 19 20 21 22 22 22 21 19 17 17 17 18 20 22 23 23 22 21 20 19 19 19 21 23 22 20 20 21 22 21 22 22 21 19 18 19 20 19 17 17 16 16 18 19 18 17 17 18 18 16 15 15 15 14 12
26 25 24 23 22 21 20 20 21 21 22 23 24 24 24 22 19 18 17 17 18 20 21 22 23 22 21 20 19 19 21 23 23 21 19 20 21 21 22 23 22 20 18 18 19 18 17 18 18 18 18 19 19 18 18 18 18 18 16 16 16 16 14
26 25 24 23 21 20 19 19 20 21 22 23 24 25 26 25 22 20 18 18 19 20 20 21 23 23 22 21 20 20 21 22 22 20 18 17 19 20 22 23 23 22 20 20 20 19 18 19 20 20 19 20 20 19 19 18 19 18 17 17 17 17 16
26 24 23 21 19 17 16 17 19 19 19 20 22 24 27 27 25 21 18 17 19 22 22 22 23 24 24 23 21 21 22 22 21 20 18 17 17 18 21 23 23 23 22 23 23 21 19 20 21 21 21 21 21 20 18 18 19 19 16 15 16 17 17
26 24 21 19 16 14 15 17 18 19 19 19 20 23 26 29 27 22 17 15 17 20 22 23 24 24 24 23 22 22 23 23 21 19 17 17 17 17 18 19 20 22 23 23 23 22 21 21 22 23 23 22 21 21 20 19 19 20 18 15 15 16 16
27 24 22 21 19 18 19 20 19 20 20 19 21 22 24 27 28 22 16 14 15 17 20 22 22 22 22 23 22 22 22 22 21 18 16 15 15 15 15 14 16 19 21 21 22 24 23 22 22 25 26 25 24 23 22 20 20 19 18 16 16 16 16
26 24 24 24 24 22 21 20 21 22 21 19 20 21 21 24 27 22 16 15 16 18 19 20 20 21 21 21 21 21 21 20 19 17 17 15 14 13 13 12 14 18 19 19 20 23 24 23 23 25 26 27 27 25 22 22 22 20 18 18 18 19 18
24 26 26 24 23 22 21 21 22 21 19 16 18 20 21 24 27 25 21 21 22 21 21 20 20 21 21 21 20 19 19 19 17 17 18 18 16 15 14 15 18 20 20 19 21 23 25 25 25 25 25 26 27 25 24 24 24 22 20 20 20 21 19
Wind_Direction
193 193 197 199 201 210 217 219 219 220 223 226 230 232 232 232 225 216 215 218 219 221 220 220 221 219 216 216 216 215 214 216 211 207 219 221 219 229 229 226 232 240 247 244 255 282 272 206 187 168 188 231 212 186 210 220 239 275 281 250 249 269 274
191 190 197 201 203 209 215 217 221 226 228 231 233 235 234 232 227 220 217 219 220 220 220 221 222 221 219 217 218 216 215 218 215 211 221 222 210 211 220 228 235 243 253 250 248 269 296 289 225 147 192 254 201 210 242 252 250 284 283 269 260 267 287
191 190 193 197 201 209 215 218 223 230 234 234 233 234 232 225 221 221 220 222 223 219 219 220 222 225 223 221 222 221 218 221 221 221 230 232 221 215 220 229 234 241 249 253 255 256 268 286 290 262 241 234 208 232 264 270 262 283 271 285 292 247 281
193 193 194 197 203 211 217 219 223 229 234 236 235 235 234 225 217 218 218 221 221 217 217 220 222 228 228 224 224 225 225 225 227 232 237 239 235 231 232 236 237 242 245 244 248 244 241 263 277 277 279 259 219 224 264 268 188 161 241 353 66 178 278
197 199 200 204 211 217 223 225 226 230 232 231 232 233 233 228 223 222 219 220 219 214 216 221 223 227 228 226 225 227 228 228 229 233 237 237 236 236 239 240 238 240 242 243 246 238 231 245 259 265 280 281 225 191 231 251 131 149 160 138 164 159 96
200 203 207 211 217 221 226 230 228 228 228 226 225 228 228 225 225 225 222 221 221 216 216 220 221 222 223 224 224 226 229 229 229 231 234 235 234 235 237 236 234 235 237 237 240 240 243 246 249 261 271 264 240 210 207 176 139 159 159 160 171 153 137
202 206 211 216 221 224 227 231 231 229 228 226 226 228 226 223 222 222 219 216 217 218 217 219 220 219 219 221 222 224 224 224 225 228 230 229 229 230 232 231 225 221 226 234 232 228 235 235 234 249 256 254 254 245 212 184 166 166 164 169 169 155 206
205 208 214 220 225 228 229 230 232 231 227 224 226 228 227 223 221 220 218 215 215 216 216 217 217 217 217 218 220 221 220 219 221 224 224 225 227 228 228 227 222 215 217 225 225 216 216 214 213 230 241 252 250 227 216 200 170 167 164 170 206 225 319
209 212 217 224 228 230 230 229 230 230 225 221 221 222 225 224 221 219 220 219 217 214 213 214 213 211 213 214 217 219 217 217 217 219 222 224 227 226 225 225 222 218 216 214 211 206 208 207 207 219 224 237 239 201 197 194 172 175 157 162 275 302 316
214 216 221 226 228 229 229 229 231 231 225 220 217 215 220 225 223 220 219 219 216 211 212 214 210 207 207 211 215 216 216 216 214 216 219 222 225 224 222 221 220 221 219 212 206 203 206 208 207 207 205 219 233 222 230 219 189 194 182 189 261 291 293
218 221 224 227 228 228 229 229 232 232 226 218 214 212 215 222 223 220 217 217 215 210 211 216 214 211 209 210 213 215 215 214 212 216 218 219 221 220 218 218 219 222 222 215 210 208 210 212 208 200 199 214 225 227 244 254 240 232 235 262 251 266 286
222 224 225 227 227 228 229 230 231 232 226 218 215 214 212 213 219 219 216 216 216 212 213 216 216 216 215 213 214 215 215 211 210 215 217 215 215 215 217 216 215 220 222 218 217 215 218 221 213 200 205 216 224 230 239 252 264 267 266 269 268 277 286
223 223 223 225 227 230 231 232 233 231 224 219 218 218 214 212 218 222 219 218 218 215 215 215 214 218 220 219 218 219 217 213 212 215 215 215 216 216 217 215 213 216 219 218 219 219 223 228 219 208 215 221 228 235 235 244 266 279 282 279 272 278 287
221 223 224 226 229 232 234 234 232 229 223 219 219 219 217 215 218 223 222 221 221 219 217 216 215 217 221 222 222 221 219 215 213 215 216 215 216 217 218 217 215 217 219 218 219 221 226 230 222 215 221 222 226 233 231 239 254 263 277 284 280 281 289
223 225 227 230 232 233 233 232 230 227 224 221 218 218 219 216 216 220 222 223 224 221 216 213 214 218 221 224 223 221 219 217 214 215 218 218 217 217 216 217 217 218 220 220 218 218 221 226 225 221 224 222 222 230 232 237 247 255 267 275 278 284 288
228 229 231 232 232 232 231 230 228 226 224 223 220 218 218 216 214 216 218 221 224 224 219 213 214 217 218 220 222 222 222 220 216 216 220 221 220 218 217 218 220 221 223 223 219 216 217 224 226 223 225 224 222 231 241 241 246 256 264 268 274 278 277
227 229 230 231 231 230 229 227 226 224 222 221 219 218 217 214 212 213 214 215 218 221 223 223 223 223 220 217 218 221 223 222 218 218 223 225 222 222 224 224 223 226 230 228 222 219 221 225 227 223 224 228 230 235 243 247 251 255 258 266 274 270 273
223 224 226 228 228 226 225 225 224 220 217 216 214 215 215 213 211 211 213 214 213 215 220 225 229 231 228 223 219 219 221 222 221 222 226 228 225 226 229 230 229 231 234 230 224 222 224 227 229 227 224 228 233 237 240 245 250 251 254 261 270 272 281
218 220 222 223 223 223 223 222 220 219 217 214 212 213 215 215 213 213 215 216 214 215 218 219 224 230 231 229 227 223 220 220 223 225 228 230 228 228 229 229 228 229 231 229 226 226 228 231 233 230 227 228 229 234 241 245 243 245 251 257 264 271 280
217 220 222 220 219 222 223 220 219 220 219 215 214 215 217 218 218 216 216 217 216 218 220 219 221 226 228 229 231 229 224 223 226 229 230 230 229 230 230 228 226 226 228 226 226 229 232 235 234 231 229 228 226 231 238 238 238 244 251 254 259 262 265
219 222 223 221 221 223 223 218 218 222 222 219 218 219 220 222 222 220 217 217 218 219 220 221 223 225 226 226 228 229 227 226 228 230 229 227 227 228 228 228 228 229 230 228 227 231 232 232 233 232 229 226 226 230 231 228 234 243 247 246 248 251 252
221 221 223 223 223 223 222 219 218 219 222 222 220 219 221 223 223 222 219 217 219 220 219 221 223 224 225 226 228 228 226 226 229 230 229 227 228 227 225 227 229 230 232 231 229 230 229 230 233 230 226 227 229 229 222 223 234 236 234 237 236 240 247
221 219 219 222 221 219 219 220 217 215 217 219 219 218 218 220 221 221 220 219 220 221 220 222 223 222 223 224 226 229 228 229 232 233 233 231 231 227 225 227 229 230 232 231 229 229 230 235 236 227 224 229 231 227 222 225 232 228 226 232 229 233 241
219 216 216 217 216 213 214 215 213 212 214 216 218 218 218 219 219 219 220 220 221 222 225 227 224 221 220 220 221 226 228 231 233 233 232 231 231 230 230 231 232 233 233 230 229 230 234 239 236 226 225 229 229 226 225 228 230 226 226 229 227 232 237
214 210 212 212 211 210 212 212 211 211 213 214 216 219 220 220 220 220 220 221 222 223 227 229 223 219 222 221 219 219 222 228 233 231 229 230 231 233 233 232 232 233 233 230 230 234 237 239 234 226 225 229 229 228 229 229 227 223 224 225 227 232 231
209 204 207 207 206 209 211 212 212 212 213 213 214 218 222 222 221 221 222 223 224 225 228 228 222 221 226 227 223 219 218 224 231 231 230 231 231 231 228 227 231 234 234 232 232 234 237 236 231 226 224 226 228 229 231 232 227 224 223 221 222 229 232
215 210 209 208 206 207 207 209 212 212 212 214 214 217 221 221 220 222 223 223 225 228 231 230 224 223 225 227 227 224 220 221 225 227 228 228 228 228 226 226 230 235 235 234 232 232 235 234 230 228 227 228 229 230 232 232 229 230 231 225 219 220 229
214 213 212 212 211 211 211 211 213 213 214 216 215 216 219 219 219 221 222 223 225 229 233 232 226 224 226 227 227 225 221 219 222 224 226 228 229 230 230 229 230 232 236 237 235 232 234 234 233 231 230 230 231 234 236 233 231 236 240 235 227 221 227
209 210 211 211 212 214 214 216 217 218 219 220 218 217 218 218 221 220 220 224 225 226 231 232 226 223 226 227 226 224 221 220 222 224 226 230 232 232 231 229 229 231 236 239 237 233 232 233 232 231 233 233 232 235 239 237 235 238 242 240 235 234 239
210 210 211 213 214 214 214 216 218 220 222 223 223 223 220 217 219 221 220 223 225 224 228 230 226 223 225 227 226 225 222 221 222 223 226 231 233 233 231 229 228 231 234 237 238 234 230 229 228 227 231 232 230 229 234 239 240 240 244 246 244 244 246
212 211 213 216 218 219 218 218 218 219 221 223 224 225 224 221 219 220 220 223 224 224 227 230 227 224 226 228 228 227 223 222 223 223 225 231 233 234 234 233 231 231 231 234 239 237 230 228 227 226 227 228 228 228 230 237 244 244 244 246 246 245 245
215 215 215 219 224 226 224 220 217 218 220 223 224 224 224 224 220 218 221 224 225 223 224 229 231 227 227 230 229 227 223 221 222 223 222 228 234 236 238 239 237 234 231 235 240 237 231 229 229 229 229 227 229 232 231 235 243 247 248 249 248 247 248
218 219 221 226 230 230 229 224 220 221 220 222 223 222 222 223 220 218 220 223 226 226 224 228 232 230 230 231 229 226 224 222 223 223 220 224 231 236 240 244 245 241 236 238 242 239 233 233 233 233 234 232 232 234 235 236 241 245 247 249 248 247 249
222 224 225 229 231 234 240 237 232 231 228 224 223 221 221 221 218 217 218 219 225 227 224 227 232 230 231 232 229 226 224 224 224 223 221 223 227 232 236 241 247 248 243 241 244 243 239 239 238 235 235 236 234 234 236 239 242 246 246 241 239 241 244
220 222 224 229 236 245 249 243 237 235 233 229 225 221 219 219 215 212 213 216 220 225 225 228 231 230 230 230 227 223 222 224 224 221 219 222 226 230 233 233 241 250 249 244 244 245 244 243 242 239 236 236 236 237 240 243 243 245 244 239 237 239 239
219 226 233 238 242 244 239 232 230 230 228 225 223 219 218 218 214 208 206 211 215 220 224 227 228 226 224 222 221 220 221 224 224 220 219 222 224 229 235 236 240 248 251 247 243 243 243 242 242 241 239 238 239 240 242 245 243 241 239 238 239 240 238
222 228 232 233 231 227 221 219 223 223 219 216 218 218 215 214 211 207 206 211 214 217 222 223 220 219 218 216 217 219 220 223 222 220 221 224 225 228 233 238 242 245 248 248 244 242 242 241 241 241 239 239 241 241 240 242 243 240 236 237 239 239 237